sat.trackr.live / text

‹ back to catalog

JIAOTONG VDES

NORAD 54588 · 2022-164A

PAYLOAD ACTIVE UNKNOWN

§ Identity

Operator
Country
PRC
Launch date
2022-12-07
Launch site
JSC
Launch vehicle
Mass (kg)
RCS (m²)

External: N2YO · Heavens-Above · Gunter

§ Orbital elements

Epoch: 2026-05-25T04:29:57.048576Z

Period
99.58 min
Inclination
98.2426°
Eccentricity
0.0010733
Mean motion
14.46054401 rev/d
Perigee alt
730.9 km
Apogee alt
746.2 km
Semi-major
7,116.7 km
B*
9.1546e-5
RAAN
165.0005°
Arg perigee
43.9492°
Mean anomaly
316.2552°
Rev number
18,275

§ Raw data

JIAOTONG VDES1 54588U 22164A   26145.18746584  .00000284  00000+0  91546-4 0  99982 54588  98.2426 165.0005 0010733  43.9492 316.2552 14.46054401182751

JSON: /api/v1/satellites/54588 · /tle

For live sub-satellite position, see the globe view (requires WebGL).

§ Visibility from observer

Set your observer location to see the next 7 days of passes ≥ 10°. The values pass through the URL so the page stays shareable.

No JS? Fill the form by hand. The geolocation button needs JavaScript.